EW2887 Weather Reports


Display with metric or nautical units.
time (UTC)temp
F
wind
direction
speed
MPH
gust
MPH
rain 1hr
in
rain 24hr
in
rain mn
in
humidity
%
barometer
mb
20260507014519 53 22 15.0 21.0 0.00 0.00 0.00 54 1017.7
20260507013010 53 26 12.0 18.0 0.00 0.00 0.00 53 1017.0
20260507011510 54 44 11.0 18.0 0.00 0.00 0.00 53 1016.6
20260507010010 55 66 13.0 18.0 0.00 0.00 0.00 52 1016.0
20260507004513 55 84 10.0 16.0 0.00 0.00 0.00 52 1015.5
20260507003008 56 51 12.0 20.0 0.00 0.00 0.00 51 1015.2
20260507001506 56 74 11.0 16.0 0.00 0.00 0.00 52 1015.1
20260507000006 56 51 17.0 26.0 0.00 0.00 0.00 50 1014.6
20260506234506 57 71 9.0 22.0 0.00 0.00 0.00 50 1014.3
20260506233006 57 72 16.0 23.0 0.00 0.00 0.00 50 1014.2
20260506231504 57 45 13.0 19.0 0.00 0.00 0.00 51 1014.2
20260506230105 57 105 14.0 19.0 0.00 0.00 0.00 51 1014.4
20260506224503 56 73 11.0 19.0 0.00 0.00 0.00 51 1014.4
20260506223003 56 82 17.0 26.0 0.00 0.00 0.00 52 1014.4
20260506221501 56 66 11.0 17.0 0.00 0.00 0.00 52 1014.4
20260506220003 56 61 15.0 27.0 0.00 0.00 0.00 52 1014.8
20260506214600 56 76 14.0 22.0 0.00 0.00 0.00 52 1014.7
20260506213118 56 66 19.0 24.0 0.00 0.00 0.00 51 1014.9
20260506211600 57 67 13.0 23.0 0.00 0.00 0.00 51 1014.9
20260506210058 57 74 13.0 22.0 0.00 0.00 0.00 50 1014.9
20260506204556 56 115 15.0 21.0 0.00 0.00 0.00 53 1015.0
20260506203055 56 74 11.0 18.0 0.00 0.00 0.00 53 1015.0
20260506201553 56 47 12.0 17.0 0.00 0.00 0.00 53 1015.1
20260506200053 56 84 14.0 26.0 0.00 0.00 0.00 51 1014.9
20260506194555 56 72 8.0 17.0 0.00 0.00 0.00 54 1014.9
20260506193050 54 89 8.0 18.0 0.00 0.00 0.00 56 1015.4
20260506191547 54 79 7.0 14.0 0.00 0.00 0.00 55 1015.5
20260506190044 53 133 4.0 15.0 0.00 0.00 0.00 57 1015.6
20260506184541 51 85 7.0 17.0 0.00 0.00 0.00 60 1016.0
20260506183040 51 78 8.0 18.0 0.00 0.00 0.00 60 1015.9
20260506181539 50 87 8.0 14.0 0.00 0.00 0.00 61 1016.3
20260506180046 51 58 5.0 14.0 0.00 0.00 0.00 60 1016.5
20260506174541 50 21 6.0 11.0 0.00 0.00 0.00 63 1016.7
20260506173035 50 53 3.0 11.0 0.00 0.00 0.00 63 1016.7
20260506171533 50 360 7.0 10.0 0.00 0.00 0.00 62 1016.8
20260506170030 49 134 9.0 15.0 0.00 0.00 0.00 65 1016.6
20260506164527 48 88 9.0 14.0 0.00 0.00 0.00 65 1016.4
20260506163043 47 89 4.0 10.0 0.00 0.00 0.00 66 1016.5
20260506161524 47 88 6.0 10.0 0.00 0.00 0.00 67 1016.5
20260506160021 46 64 5.0 11.0 0.00 0.00 0.00 69 1016.1
20260506154514 46 97 7.0 11.0 0.00 0.00 0.00 69 1016.1
20260506153011 45 90 9.0 13.0 0.00 0.00 0.00 69 1015.8
20260506151511 45 360 7.0 12.0 0.00 0.00 0.00 69 1015.9
20260506150011 45 360 4.0 11.0 0.00 0.00 0.00 70 1015.8
20260506144507 44 96 5.0 9.0 0.00 0.00 0.00 72 1015.6
20260506143008 44 360 8.0 12.0 0.00 0.00 0.00 71 1015.5
20260506141505 44 102 7.0 11.0 0.00 0.00 0.00 71 1015.4
20260506140006 44 94 11.0 16.0 0.00 0.00 0.00 70 1014.9
20260506134505 43 360 15.0 21.0 0.00 0.00 0.00 72 1014.5
20260506133003 43 94 14.0 22.0 0.00 0.00 0.00 73 1014.7
20260506131502 42 120 14.0 18.0 0.00 0.00 0.00 74 1014.9
20260506130002 42 360 10.0 15.0 0.00 0.00 0.00 74 1014.8
20260506124601 42 117 4.0 13.0 0.00 0.00 0.00 75 1015.5
20260506123059 41 107 9.0 11.0 0.00 0.00 0.00 76 1015.1
20260506121558 41 360 8.0 13.0 0.00 0.00 0.00 79 1015.2
20260506120059 41 101 10.0 15.0 0.00 0.00 0.00 82 1014.9
20260506114559 40 360 8.0 17.0 0.00 0.00 0.00 84 1014.5
20260506113049 40 360 13.0 21.0 0.00 0.00 0.00 84 1014.0
20260506111548 41 92 11.0 17.0 0.00 0.00 0.00 84 1013.9
20260506110053 41 88 12.0 18.0 0.00 0.00 0.00 84 1013.6
20260506104543 41 99 11.0 17.0 0.00 0.00 0.00 84 1013.5
20260506103040 41 360 10.0 17.0 0.00 0.00 0.00 83 1013.5
20260506101537 43 66 12.0 17.0 0.00 0.00 0.00 82 1013.3
20260506100034 43 88 10.0 14.0 0.00 0.00 0.00 81 1013.3
20260506094532 43 88 8.0 13.0 0.00 0.00 0.00 80 1012.8
20260506093030 43 82 9.0 16.0 0.00 0.00 0.00 80 1012.5
20260506091525 44 63 9.0 15.0 0.00 0.00 0.00 80 1012.0
20260506090024 44 75 11.0 15.0 0.00 0.00 0.00 79 1011.9
20260506084523 44 63 8.0 11.0 0.00 0.00 0.00 78 1011.9
20260506083021 43 44 7.0 9.0 0.00 0.00 0.00 79 1011.8
20260506081521 43 61 4.0 7.0 0.00 0.00 0.00 80 1011.6
20260506073017 42 99 7.0 11.0 0.00 0.00 0.00 79 1010.6
20260506071515 42 360 10.0 15.0 0.00 0.00 0.00 79 1010.2
20260506061514 43 59 5.0 12.0 0.00 0.00 0.00 77 1011.1
20260506044552 46 360 9.0 16.0 0.00 0.00 0.00 70 1009.3
20260506043046 46 85 15.0 21.0 0.00 0.00 0.00 69 1008.6
20260506041548 47 83 15.0 23.0 0.00 0.00 0.00 68 1008.4
20260506040056 47 80 14.0 19.0 0.00 0.00 0.00 66 1008.5
20260506034542 48 60 12.0 17.0 0.00 0.00 0.00 65 1008.3
20260506033034 49 62 11.0 22.0 0.00 0.00 0.00 61 1007.9
20260506031544 49 82 16.0 21.0 0.00 0.00 0.00 60 1007.8
20260506030029 50 89 10.0 16.0 0.00 0.00 0.00 59 1007.5
20260506024528 50 74 10.0 16.0 0.00 0.00 0.00 57 1007.2
20260506023025 51 80 12.0 16.0 0.00 0.00 0.00 57 1007.0
20260506021522 51 58 11.0 16.0 0.00 0.00 0.00 56 1006.7
20260506020022 52 85 11.0 18.0 0.00 0.00 0.00 56 1006.2